Location: Nairn
(57.5833°N, 3.8667°W)
Time: 22:15:53
(UTC+00:00)

Altair - Pass Details

Date: 09 October 2022
Orbit: 1501 x 1682 km, 47.2° (Epoch: 05 December)

Event Time Altitude Azimuth Distance (km) Brightness Sun altitude
Exits shadow 04:09:11 16° 207° (SSW) 3,356 8.8 -20.2°
Maximum altitude 04:15:51 35° 153° (SSE) 2,417 8.6 -19.4°
Drops below altitude 10° 04:24:28 10° 93° (E) 3,912 10.7 -18.3°
Sets 04:28:00 0° 85° (E) 4,918 11.7 -17.8°
